Year,Month,Day,Hour,Minute,Value (Times are PST for temperature in C)
2014,08,29,00,00,16.90
2014,08,29,00,01,16.90
2014,08,29,00,02,16.90
2014,08,29,00,03,16.90
2014,08,29,00,04,16.80
2014,08,29,00,05,16.80
2014,08,29,00,06,16.80
2014,08,29,00,07,16.80
2014,08,29,00,08,16.80
2014,08,29,00,09,16.80
2014,08,29,00,10,16.80
2014,08,29,00,11,16.80
2014,08,29,00,12,16.70
2014,08,29,00,13,16.70
2014,08,29,00,14,16.70
2014,08,29,00,15,16.70
2014,08,29,00,16,16.70
2014,08,29,00,17,16.70
2014,08,29,00,18,16.60
2014,08,29,00,19,16.60
2014,08,29,00,20,16.60
2014,08,29,00,21,16.60
2014,08,29,00,22,16.50
2014,08,29,00,23,16.50
2014,08,29,00,24,16.50
2014,08,29,00,25,16.40
2014,08,29,00,26,16.40
2014,08,29,00,27,16.30
2014,08,29,00,28,16.30
2014,08,29,00,29,16.30
2014,08,29,00,30,16.20
2014,08,29,00,31,16.20
2014,08,29,00,32,16.20
2014,08,29,00,33,16.10
2014,08,29,00,34,16.10
2014,08,29,00,35,16.10
2014,08,29,00,36,16.10
2014,08,29,00,37,16.00
2014,08,29,00,38,16.00
2014,08,29,00,39,16.00
2014,08,29,00,40,16.00
2014,08,29,00,41,15.90
2014,08,29,00,42,15.90
2014,08,29,00,43,15.90
2014,08,29,00,44,15.90
2014,08,29,00,45,15.90
2014,08,29,00,46,15.80
2014,08,29,00,47,15.80
2014,08,29,00,48,15.80
2014,08,29,00,49,15.80
2014,08,29,00,50,15.80
2014,08,29,00,51,15.80
2014,08,29,00,52,15.80
2014,08,29,00,53,15.70
2014,08,29,00,54,15.70
2014,08,29,00,55,15.70
2014,08,29,00,56,15.70
2014,08,29,00,57,15.60
2014,08,29,00,58,15.60
2014,08,29,00,59,15.60
2014,08,29,01,00,15.60
2014,08,29,01,01,15.50
2014,08,29,01,02,15.50
2014,08,29,01,03,15.50
2014,08,29,01,04,15.40
2014,08,29,01,05,15.40
2014,08,29,01,06,15.40
2014,08,29,01,07,15.40
2014,08,29,01,08,15.40
2014,08,29,01,09,15.40
2014,08,29,01,10,15.30
2014,08,29,01,11,15.30
2014,08,29,01,12,15.30
2014,08,29,01,13,15.30
2014,08,29,01,14,15.30
2014,08,29,01,15,15.30
2014,08,29,01,16,15.30
2014,08,29,01,17,15.20
2014,08,29,01,18,15.20
2014,08,29,01,19,15.20
2014,08,29,01,20,15.20
2014,08,29,01,21,15.20
2014,08,29,01,22,15.10
2014,08,29,01,23,15.10
2014,08,29,01,24,15.10
2014,08,29,01,25,15.00
2014,08,29,01,26,15.00
2014,08,29,01,27,15.00
2014,08,29,01,28,15.00
2014,08,29,01,29,15.00
2014,08,29,01,30,15.00
2014,08,29,01,31,15.00
2014,08,29,01,32,15.00
2014,08,29,01,33,15.00
2014,08,29,01,34,14.90
2014,08,29,01,35,14.90
2014,08,29,01,36,14.80
2014,08,29,01,37,14.80
2014,08,29,01,38,14.80
2014,08,29,01,39,14.80
2014,08,29,01,40,14.70
2014,08,29,01,41,14.70
2014,08,29,01,42,14.70
2014,08,29,01,43,14.70
2014,08,29,01,44,14.60
2014,08,29,01,45,14.60
2014,08,29,01,46,14.60
2014,08,29,01,47,14.50
2014,08,29,01,48,14.50
2014,08,29,01,49,14.50
2014,08,29,01,50,14.40
2014,08,29,01,51,14.40
2014,08,29,01,52,14.40
2014,08,29,01,53,14.40
2014,08,29,01,54,14.30
2014,08,29,01,55,14.30
2014,08,29,01,56,14.30
2014,08,29,01,57,14.30
2014,08,29,01,58,14.30
2014,08,29,01,59,14.30
2014,08,29,02,00,14.20
2014,08,29,02,01,14.20
2014,08,29,02,02,14.20
2014,08,29,02,03,14.20
2014,08,29,02,04,14.20
2014,08,29,02,05,14.20
2014,08,29,02,06,14.20
2014,08,29,02,07,14.20
2014,08,29,02,08,14.20
2014,08,29,02,09,14.10
2014,08,29,02,10,14.10
2014,08,29,02,11,14.10
2014,08,29,02,12,14.10
2014,08,29,02,13,14.10
2014,08,29,02,14,14.10
2014,08,29,02,15,14.10
2014,08,29,02,16,14.00
2014,08,29,02,17,14.00
2014,08,29,02,18,14.00
2014,08,29,02,19,13.90
2014,08,29,02,20,13.90
2014,08,29,02,21,13.90
2014,08,29,02,22,13.90
2014,08,29,02,23,13.90
2014,08,29,02,24,13.90
2014,08,29,02,25,13.90
2014,08,29,02,26,13.80
2014,08,29,02,27,13.80
2014,08,29,02,28,13.80
2014,08,29,02,29,13.80
2014,08,29,02,30,13.80
2014,08,29,02,31,13.80
2014,08,29,02,32,13.80
2014,08,29,02,33,13.70
2014,08,29,02,34,13.70
2014,08,29,02,35,13.70
2014,08,29,02,36,13.70
2014,08,29,02,37,13.70
2014,08,29,02,38,13.60
2014,08,29,02,39,13.60
2014,08,29,02,40,13.60
2014,08,29,02,41,13.60
2014,08,29,02,42,13.60
2014,08,29,02,43,13.50
2014,08,29,02,44,13.50
2014,08,29,02,45,13.50
2014,08,29,02,46,13.40
2014,08,29,02,47,13.40
2014,08,29,02,48,13.40
2014,08,29,02,49,13.40
2014,08,29,02,50,13.40
2014,08,29,02,51,13.30
2014,08,29,02,52,13.30
2014,08,29,02,53,13.30
2014,08,29,02,54,13.30
2014,08,29,02,55,13.30
2014,08,29,02,56,13.30
2014,08,29,02,57,13.30
2014,08,29,02,58,13.30
2014,08,29,02,59,13.30
2014,08,29,03,00,13.30
2014,08,29,03,01,13.30
2014,08,29,03,02,13.40
2014,08,29,03,03,13.40
2014,08,29,03,04,13.40
2014,08,29,03,05,13.40
2014,08,29,03,06,13.40
2014,08,29,03,07,13.40
2014,08,29,03,08,13.40
2014,08,29,03,09,13.40
2014,08,29,03,10,13.40
2014,08,29,03,11,13.40
2014,08,29,03,12,13.40
2014,08,29,03,13,13.40
2014,08,29,03,14,13.40
2014,08,29,03,15,13.40
2014,08,29,03,16,13.40
2014,08,29,03,17,13.50
2014,08,29,03,18,13.50
2014,08,29,03,19,13.40
2014,08,29,03,20,13.50
2014,08,29,03,21,13.50
2014,08,29,03,22,13.50
2014,08,29,03,23,13.50
2014,08,29,03,24,13.60
2014,08,29,03,25,13.60
2014,08,29,03,26,13.70
2014,08,29,03,27,13.70
2014,08,29,03,28,13.80
2014,08,29,03,29,13.80
2014,08,29,03,30,13.80
2014,08,29,03,31,13.80
2014,08,29,03,32,13.80
2014,08,29,03,33,13.80
2014,08,29,03,34,13.80
2014,08,29,03,35,13.80
2014,08,29,03,36,13.80
2014,08,29,03,37,13.80
2014,08,29,03,38,13.80
2014,08,29,03,39,13.80
2014,08,29,03,40,13.70
2014,08,29,03,41,13.70
2014,08,29,03,42,13.70
2014,08,29,03,43,13.70
2014,08,29,03,44,13.70
2014,08,29,03,45,13.70
2014,08,29,03,46,13.60
2014,08,29,03,47,13.60
2014,08,29,03,48,13.60
2014,08,29,03,49,13.60
2014,08,29,03,50,13.60
2014,08,29,03,51,13.70
2014,08,29,03,52,13.70
2014,08,29,03,53,13.70
2014,08,29,03,54,13.70
2014,08,29,03,55,13.70
2014,08,29,03,56,13.70
2014,08,29,03,57,13.70
2014,08,29,03,58,13.70
2014,08,29,03,59,13.70
2014,08,29,04,00,13.70
2014,08,29,04,01,13.70
2014,08,29,04,02,13.70
2014,08,29,04,03,13.70
2014,08,29,04,04,13.70
2014,08,29,04,05,13.70
2014,08,29,04,06,13.70
2014,08,29,04,07,13.70
2014,08,29,04,08,13.70
2014,08,29,04,09,13.70
2014,08,29,04,10,13.70
2014,08,29,04,11,13.60
2014,08,29,04,12,13.60
2014,08,29,04,13,13.60
2014,08,29,04,14,13.60
2014,08,29,04,15,13.50
2014,08,29,04,16,13.50
2014,08,29,04,17,13.50
2014,08,29,04,18,13.50
2014,08,29,04,19,13.40
2014,08,29,04,20,13.40
2014,08,29,04,21,13.40
2014,08,29,04,22,13.40
2014,08,29,04,23,13.40
2014,08,29,04,24,13.40
2014,08,29,04,25,13.40
2014,08,29,04,26,13.30
2014,08,29,04,27,13.30
2014,08,29,04,28,13.30
2014,08,29,04,29,13.30
2014,08,29,04,30,13.30
2014,08,29,04,31,13.20
2014,08,29,04,32,13.20
2014,08,29,04,33,13.20
2014,08,29,04,34,13.20
2014,08,29,04,35,13.20
2014,08,29,04,36,13.20
2014,08,29,04,37,13.10
2014,08,29,04,38,13.10
2014,08,29,04,39,13.10
2014,08,29,04,40,13.10
2014,08,29,04,41,13.10
2014,08,29,04,42,13.10
2014,08,29,04,43,13.10
2014,08,29,04,44,13.10
2014,08,29,04,45,13.10
2014,08,29,04,46,13.10
2014,08,29,04,47,13.10
2014,08,29,04,48,13.10
2014,08,29,04,49,13.10
2014,08,29,04,50,13.10
2014,08,29,04,51,13.10
2014,08,29,04,52,13.10
2014,08,29,04,53,13.10
2014,08,29,04,54,13.10
2014,08,29,04,55,13.10
2014,08,29,04,56,13.10
2014,08,29,04,57,13.10
2014,08,29,04,58,13.10
2014,08,29,04,59,13.10
2014,08,29,05,00,13.10
2014,08,29,05,01,13.10
2014,08,29,05,02,13.10
2014,08,29,05,03,13.10
2014,08,29,05,04,13.10
2014,08,29,05,05,13.10
2014,08,29,05,06,13.10
2014,08,29,05,07,13.10
2014,08,29,05,08,13.10
2014,08,29,05,09,13.10
2014,08,29,05,10,13.10
2014,08,29,05,11,13.10
2014,08,29,05,12,13.10
2014,08,29,05,13,13.10
2014,08,29,05,14,13.10
2014,08,29,05,15,13.10
2014,08,29,05,16,13.00
2014,08,29,05,17,13.00
2014,08,29,05,18,13.00
2014,08,29,05,19,13.00
2014,08,29,05,20,13.00
2014,08,29,05,21,13.00
2014,08,29,05,22,13.00
2014,08,29,05,23,13.00
2014,08,29,05,24,13.00
2014,08,29,05,25,12.90
2014,08,29,05,26,12.90
2014,08,29,05,27,12.90
2014,08,29,05,28,12.90
2014,08,29,05,29,12.90
2014,08,29,05,30,12.90
2014,08,29,05,31,12.90
2014,08,29,05,32,12.90
2014,08,29,05,33,12.90
2014,08,29,05,34,13.00
2014,08,29,05,35,13.00
2014,08,29,05,36,13.00
2014,08,29,05,37,13.00
2014,08,29,05,38,13.00
2014,08,29,05,39,13.00
2014,08,29,05,40,13.00
2014,08,29,05,41,13.00
2014,08,29,05,42,13.00
2014,08,29,05,43,13.00
2014,08,29,05,44,13.00
2014,08,29,05,45,13.00
2014,08,29,05,46,13.00
2014,08,29,05,47,13.00
2014,08,29,05,48,13.00
2014,08,29,05,49,13.00
2014,08,29,05,50,13.00
2014,08,29,05,51,13.00
2014,08,29,05,52,13.00
2014,08,29,05,53,13.00
2014,08,29,05,54,13.00
2014,08,29,05,55,13.00
2014,08,29,05,56,13.00
2014,08,29,05,57,13.00
2014,08,29,05,58,13.00
2014,08,29,05,59,13.00
2014,08,29,06,00,13.00
2014,08,29,06,01,13.10
2014,08,29,06,02,13.10
2014,08,29,06,03,13.10
2014,08,29,06,04,13.10
2014,08,29,06,05,13.10
2014,08,29,06,06,13.10
2014,08,29,06,07,13.10
2014,08,29,06,08,13.10
2014,08,29,06,09,13.10
2014,08,29,06,10,13.10
2014,08,29,06,11,13.10
2014,08,29,06,12,13.10
2014,08,29,06,13,13.10
2014,08,29,06,14,13.10
2014,08,29,06,15,13.10
2014,08,29,06,16,13.10
2014,08,29,06,17,13.10
2014,08,29,06,18,13.10
2014,08,29,06,19,13.10
2014,08,29,06,20,13.10
2014,08,29,06,21,13.10
2014,08,29,06,22,13.10
2014,08,29,06,23,13.10
2014,08,29,06,24,13.10
2014,08,29,06,25,13.10
2014,08,29,06,26,13.00
2014,08,29,06,27,13.00
2014,08,29,06,28,13.10
2014,08,29,06,29,13.10
2014,08,29,06,30,13.10
2014,08,29,06,31,13.00
2014,08,29,06,32,13.10
2014,08,29,06,33,13.10
2014,08,29,06,34,13.10
2014,08,29,06,35,13.00
2014,08,29,06,36,13.10
2014,08,29,06,37,13.00
2014,08,29,06,38,13.00
2014,08,29,06,39,13.00
2014,08,29,06,40,13.00
2014,08,29,06,41,13.00
2014,08,29,06,42,13.00
2014,08,29,06,43,13.00
2014,08,29,06,44,13.00
2014,08,29,06,45,13.00
2014,08,29,06,46,13.00
2014,08,29,06,47,13.00
2014,08,29,06,48,13.10
2014,08,29,06,49,13.10
2014,08,29,06,50,13.10
2014,08,29,06,51,13.10
2014,08,29,06,52,13.10
2014,08,29,06,53,13.10
2014,08,29,06,54,13.20
2014,08,29,06,55,13.20
2014,08,29,06,56,13.20
2014,08,29,06,57,13.20
2014,08,29,06,58,13.30
2014,08,29,06,59,13.30
2014,08,29,07,00,13.30
2014,08,29,07,01,13.30
2014,08,29,07,02,13.40
2014,08,29,07,03,13.40
2014,08,29,07,04,13.40
2014,08,29,07,05,13.40
2014,08,29,07,06,13.50
2014,08,29,07,07,13.50
2014,08,29,07,08,13.60
2014,08,29,07,09,13.70
2014,08,29,07,10,13.80
2014,08,29,07,11,13.90
2014,08,29,07,12,13.90
2014,08,29,07,13,14.00
2014,08,29,07,14,14.10
2014,08,29,07,15,14.30
2014,08,29,07,16,14.40
2014,08,29,07,17,14.50
2014,08,29,07,18,14.60
2014,08,29,07,19,14.80
2014,08,29,07,20,14.90
2014,08,29,07,21,15.00
2014,08,29,07,22,15.00
2014,08,29,07,23,15.20
2014,08,29,07,24,15.30
2014,08,29,07,25,15.30
2014,08,29,07,26,15.40
2014,08,29,07,27,15.50
2014,08,29,07,28,15.60
2014,08,29,07,29,15.70
2014,08,29,07,30,15.80
2014,08,29,07,31,15.80
2014,08,29,07,32,15.80
2014,08,29,07,33,15.90
2014,08,29,07,34,16.00
2014,08,29,07,35,16.00
2014,08,29,07,36,16.10
2014,08,29,07,37,16.10
2014,08,29,07,38,16.10
2014,08,29,07,39,16.20
2014,08,29,07,40,16.20
2014,08,29,07,41,16.20
2014,08,29,07,42,16.30
2014,08,29,07,43,16.30
2014,08,29,07,44,16.30
2014,08,29,07,45,16.30
2014,08,29,07,46,16.30
2014,08,29,07,47,16.30
2014,08,29,07,48,16.30
2014,08,29,07,49,16.30
2014,08,29,07,50,16.30
2014,08,29,07,51,16.40
2014,08,29,07,52,16.40
2014,08,29,07,53,16.40
2014,08,29,07,54,16.40
2014,08,29,07,55,16.40
2014,08,29,07,56,16.40
2014,08,29,07,57,16.40
2014,08,29,07,58,16.40
2014,08,29,07,59,16.40
2014,08,29,08,00,16.50
2014,08,29,08,01,16.50
2014,08,29,08,02,16.60
2014,08,29,08,03,16.60
2014,08,29,08,04,16.60
2014,08,29,08,05,16.60
2014,08,29,08,06,16.60
2014,08,29,08,07,16.70
2014,08,29,08,08,16.70
2014,08,29,08,09,16.70
2014,08,29,08,10,16.80
2014,08,29,08,11,16.80
2014,08,29,08,12,16.80
2014,08,29,08,13,16.90
2014,08,29,08,14,16.90
2014,08,29,08,15,17.00
2014,08,29,08,16,17.00
2014,08,29,08,17,17.10
2014,08,29,08,18,17.10
2014,08,29,08,19,17.10
2014,08,29,08,20,17.10
2014,08,29,08,21,17.20
2014,08,29,08,22,17.20
2014,08,29,08,23,17.20
2014,08,29,08,24,17.20
2014,08,29,08,25,17.20
2014,08,29,08,26,17.30
2014,08,29,08,27,17.30
2014,08,29,08,28,17.30
2014,08,29,08,29,17.30
2014,08,29,08,30,17.30
2014,08,29,08,31,17.30
2014,08,29,08,32,17.30
2014,08,29,08,33,17.40
2014,08,29,08,34,17.40
2014,08,29,08,35,17.40
2014,08,29,08,36,17.40
2014,08,29,08,37,17.40
2014,08,29,08,38,17.40
2014,08,29,08,39,17.40
2014,08,29,08,40,17.40
2014,08,29,08,41,17.40
2014,08,29,08,42,17.40
2014,08,29,08,43,17.40
2014,08,29,08,44,17.40
2014,08,29,08,45,17.40
2014,08,29,08,46,17.40
2014,08,29,08,47,17.40
2014,08,29,08,48,17.40
2014,08,29,08,49,17.40
2014,08,29,08,50,17.40
2014,08,29,08,51,17.40
2014,08,29,08,52,17.40
2014,08,29,08,53,17.40
2014,08,29,08,54,17.40
2014,08,29,08,55,17.50
2014,08,29,08,56,17.50
2014,08,29,08,57,17.50
2014,08,29,08,58,17.60
2014,08,29,08,59,17.60
2014,08,29,09,00,17.60
2014,08,29,09,01,17.60
2014,08,29,09,02,17.70
2014,08,29,09,03,17.70
2014,08,29,09,04,17.70
2014,08,29,09,05,17.80
2014,08,29,09,06,17.80
2014,08,29,09,07,17.80
2014,08,29,09,08,17.80
2014,08,29,09,09,17.80
2014,08,29,09,10,17.80
2014,08,29,09,11,17.90
2014,08,29,09,12,17.90
2014,08,29,09,13,17.90
2014,08,29,09,14,17.90
2014,08,29,09,15,17.90
2014,08,29,09,16,17.90
2014,08,29,09,17,17.90
2014,08,29,09,18,17.90
2014,08,29,09,19,17.90
2014,08,29,09,20,18.00
2014,08,29,09,21,18.00
2014,08,29,09,22,18.00
2014,08,29,09,23,18.00
2014,08,29,09,24,18.10
2014,08,29,09,25,18.10
2014,08,29,09,26,18.10
2014,08,29,09,27,18.10
2014,08,29,09,28,18.10
2014,08,29,09,29,18.10
2014,08,29,09,30,18.20
2014,08,29,09,31,18.20
2014,08,29,09,32,18.20
2014,08,29,09,33,18.20
2014,08,29,09,34,18.20
2014,08,29,09,35,18.20
2014,08,29,09,36,18.30
2014,08,29,09,37,18.30
2014,08,29,09,38,18.30
2014,08,29,09,39,18.30
2014,08,29,09,40,18.30
2014,08,29,09,41,18.40
2014,08,29,09,42,18.40
2014,08,29,09,43,18.40
2014,08,29,09,44,18.40
2014,08,29,09,45,18.40
2014,08,29,09,46,18.40
2014,08,29,09,47,18.30
2014,08,29,09,48,18.30
2014,08,29,09,49,18.20
2014,08,29,09,50,18.10
2014,08,29,09,51,18.00
2014,08,29,09,52,17.80
2014,08,29,09,53,17.70
2014,08,29,09,54,17.60
2014,08,29,09,55,17.40
2014,08,29,09,56,17.30
2014,08,29,09,57,17.20
2014,08,29,09,58,17.10
2014,08,29,09,59,17.00
2014,08,29,10,00,17.00
2014,08,29,10,01,16.90
2014,08,29,10,02,16.90
2014,08,29,10,03,16.90
2014,08,29,10,04,16.90
2014,08,29,10,05,16.90
2014,08,29,10,06,16.90
2014,08,29,10,07,16.90
2014,08,29,10,08,16.90
2014,08,29,10,09,17.00
2014,08,29,10,10,17.00
2014,08,29,10,11,17.00
2014,08,29,10,12,17.00
2014,08,29,10,13,16.90
2014,08,29,10,14,16.90
2014,08,29,10,15,16.90
2014,08,29,10,16,16.80
2014,08,29,10,17,16.80
2014,08,29,10,18,16.80
2014,08,29,10,19,16.70
2014,08,29,10,20,16.50
2014,08,29,10,21,16.40
2014,08,29,10,22,16.20
2014,08,29,10,23,16.00
2014,08,29,10,24,15.90
2014,08,29,10,25,15.80
2014,08,29,10,26,15.70
2014,08,29,10,27,15.60
2014,08,29,10,28,15.60
2014,08,29,10,29,15.60
2014,08,29,10,30,15.60
2014,08,29,10,31,15.60
2014,08,29,10,32,15.60
2014,08,29,10,33,15.50
2014,08,29,10,34,15.50
2014,08,29,10,35,15.30
2014,08,29,10,36,15.30
2014,08,29,10,37,15.20
2014,08,29,10,38,15.20
2014,08,29,10,39,15.20
2014,08,29,10,40,15.20
2014,08,29,10,41,15.20
2014,08,29,10,42,15.20
2014,08,29,10,43,15.30
2014,08,29,10,44,15.30
2014,08,29,10,45,15.40
2014,08,29,10,46,15.40
2014,08,29,10,47,15.50
2014,08,29,10,48,15.60
2014,08,29,10,49,15.70
2014,08,29,10,50,15.70
2014,08,29,10,51,15.80
2014,08,29,10,52,15.90
2014,08,29,10,53,15.90
2014,08,29,10,54,15.90
2014,08,29,10,55,16.00
2014,08,29,10,56,16.00
2014,08,29,10,57,16.00
2014,08,29,10,58,16.10
2014,08,29,10,59,16.10
2014,08,29,11,00,16.10
2014,08,29,11,01,16.10
2014,08,29,11,02,16.10
2014,08,29,11,03,16.20
2014,08,29,11,04,16.20
2014,08,29,11,05,16.20
2014,08,29,11,06,16.20
2014,08,29,11,07,16.20
2014,08,29,11,08,16.20
2014,08,29,11,09,16.30
2014,08,29,11,10,16.40
2014,08,29,11,11,16.40
2014,08,29,11,12,16.50
2014,08,29,11,13,16.60
2014,08,29,11,14,16.60
2014,08,29,11,15,16.70
2014,08,29,11,16,16.70
2014,08,29,11,17,16.80
2014,08,29,11,18,16.80
2014,08,29,11,19,16.90
2014,08,29,11,20,16.90
2014,08,29,11,21,17.00
2014,08,29,11,22,17.10
2014,08,29,11,23,17.20
2014,08,29,11,24,17.20
2014,08,29,11,25,17.30
2014,08,29,11,26,17.40
2014,08,29,11,27,17.50
2014,08,29,11,28,17.70
2014,08,29,11,29,17.80
2014,08,29,11,30,17.80
2014,08,29,11,31,17.90
2014,08,29,11,32,18.00
2014,08,29,11,33,18.10
2014,08,29,11,34,18.20
2014,08,29,11,35,18.30
2014,08,29,11,36,18.30
2014,08,29,11,37,18.20
2014,08,29,11,38,18.10
2014,08,29,11,39,18.00
2014,08,29,11,40,17.90
2014,08,29,11,41,17.80
2014,08,29,11,42,17.80
2014,08,29,11,43,17.80
2014,08,29,11,44,17.80
2014,08,29,11,45,17.80
2014,08,29,11,46,17.90
2014,08,29,11,47,17.90
2014,08,29,11,48,17.90
2014,08,29,11,49,17.90
2014,08,29,11,50,18.00
2014,08,29,11,51,17.90
2014,08,29,11,52,17.90
2014,08,29,11,53,17.80
2014,08,29,11,54,17.70
2014,08,29,11,55,17.70
2014,08,29,11,56,17.70
2014,08,29,11,57,17.70
2014,08,29,11,58,17.70
2014,08,29,11,59,17.70
2014,08,29,12,00,17.70
2014,08,29,12,01,17.90
2014,08,29,12,02,17.90
2014,08,29,12,03,17.90
2014,08,29,12,04,17.90
2014,08,29,12,05,17.90
2014,08,29,12,06,17.90
2014,08,29,12,07,17.90
2014,08,29,12,08,17.80
2014,08,29,12,09,17.80
2014,08,29,12,10,17.80
2014,08,29,12,11,17.80
2014,08,29,12,12,17.80
2014,08,29,12,13,17.90
2014,08,29,12,14,17.90
2014,08,29,12,15,17.90
2014,08,29,12,16,18.00
2014,08,29,12,17,18.10
2014,08,29,12,18,18.20
2014,08,29,12,19,18.30
2014,08,29,12,20,18.50
2014,08,29,12,21,18.60
2014,08,29,12,22,18.80
2014,08,29,12,23,18.90
2014,08,29,12,24,19.00
2014,08,29,12,25,19.10
2014,08,29,12,26,19.20
2014,08,29,12,27,19.30
2014,08,29,12,28,19.40
2014,08,29,12,29,19.60
2014,08,29,12,30,19.70
2014,08,29,12,31,19.80
2014,08,29,12,32,19.90
2014,08,29,12,33,20.00
2014,08,29,12,34,20.10
2014,08,29,12,35,20.10
2014,08,29,12,36,20.20
2014,08,29,12,37,20.20
2014,08,29,12,38,20.20
2014,08,29,12,39,20.20
2014,08,29,12,40,20.20
2014,08,29,12,41,20.20
2014,08,29,12,42,20.00
2014,08,29,12,43,19.90
2014,08,29,12,44,19.80
2014,08,29,12,45,19.70
2014,08,29,12,46,19.60
2014,08,29,12,47,19.60
2014,08,29,12,48,19.50
2014,08,29,12,49,19.50
2014,08,29,12,50,19.40
2014,08,29,12,51,19.40
2014,08,29,12,52,19.40
2014,08,29,12,53,19.40
2014,08,29,12,54,19.40
2014,08,29,12,55,19.40
2014,08,29,12,56,19.40
2014,08,29,12,57,19.40
2014,08,29,12,58,19.50
2014,08,29,12,59,19.50
2014,08,29,13,00,19.60
2014,08,29,13,01,19.70
2014,08,29,13,02,19.70
2014,08,29,13,03,19.80
2014,08,29,13,04,19.90
2014,08,29,13,05,20.00
2014,08,29,13,06,20.10
2014,08,29,13,07,20.20
2014,08,29,13,08,20.30
2014,08,29,13,09,20.30
2014,08,29,13,10,20.40
2014,08,29,13,11,20.50
2014,08,29,13,12,20.60
2014,08,29,13,13,20.70
2014,08,29,13,14,20.70
2014,08,29,13,15,20.70
2014,08,29,13,16,20.80
2014,08,29,13,17,20.80
2014,08,29,13,18,20.80
2014,08,29,13,19,20.80
2014,08,29,13,20,20.80
2014,08,29,13,21,20.80
2014,08,29,13,22,20.80
2014,08,29,13,23,20.90
2014,08,29,13,24,20.90
2014,08,29,13,25,20.80
2014,08,29,13,26,20.80
2014,08,29,13,27,20.80
2014,08,29,13,28,20.80
2014,08,29,13,29,20.80
2014,08,29,13,30,20.80
2014,08,29,13,31,20.80
2014,08,29,13,32,20.80
2014,08,29,13,33,20.80
2014,08,29,13,34,20.80
2014,08,29,13,35,20.80
2014,08,29,13,36,20.80
2014,08,29,13,37,20.80
2014,08,29,13,38,20.80
2014,08,29,13,39,20.80
2014,08,29,13,40,20.80
2014,08,29,13,41,20.90
2014,08,29,13,42,20.90
2014,08,29,13,43,21.00
2014,08,29,13,44,21.00
2014,08,29,13,45,21.10
2014,08,29,13,46,21.10
2014,08,29,13,47,21.20
2014,08,29,13,48,21.20
2014,08,29,13,49,21.20
2014,08,29,13,50,21.20
2014,08,29,13,51,21.20
2014,08,29,13,52,21.20
2014,08,29,13,53,21.20
2014,08,29,13,54,21.10
2014,08,29,13,55,21.10
2014,08,29,13,56,20.90
2014,08,29,13,57,20.80
2014,08,29,13,58,20.70
2014,08,29,13,59,20.60
2014,08,29,14,00,20.50
2014,08,29,14,01,20.50
2014,08,29,14,02,20.40
2014,08,29,14,03,20.40
2014,08,29,14,04,20.40
2014,08,29,14,05,20.50
2014,08,29,14,06,20.50
2014,08,29,14,07,20.60
2014,08,29,14,08,20.70
2014,08,29,14,09,20.80
2014,08,29,14,10,20.80
2014,08,29,14,11,20.90
2014,08,29,14,12,21.00
2014,08,29,14,13,21.20
2014,08,29,14,14,21.30
2014,08,29,14,15,21.40
2014,08,29,14,16,21.50
2014,08,29,14,17,21.60
2014,08,29,14,18,21.70
2014,08,29,14,19,21.80
2014,08,29,14,20,21.80
2014,08,29,14,21,21.90
2014,08,29,14,22,22.00
2014,08,29,14,23,22.10
2014,08,29,14,24,22.10
2014,08,29,14,25,22.20
2014,08,29,14,26,22.20
2014,08,29,14,27,22.30
2014,08,29,14,28,22.30
2014,08,29,14,29,22.30
2014,08,29,14,30,22.30
2014,08,29,14,31,22.30
2014,08,29,14,32,22.30
2014,08,29,14,33,22.30
2014,08,29,14,34,22.30
2014,08,29,14,35,22.30
2014,08,29,14,36,22.20
2014,08,29,14,37,22.20
2014,08,29,14,38,22.10
2014,08,29,14,39,22.10
2014,08,29,14,40,22.00
2014,08,29,14,41,21.90
2014,08,29,14,42,21.90
2014,08,29,14,43,21.80
2014,08,29,14,44,21.80
2014,08,29,14,45,21.70
2014,08,29,14,46,21.50
2014,08,29,14,47,21.40
2014,08,29,14,48,21.30
2014,08,29,14,49,21.20
2014,08,29,14,50,21.10
2014,08,29,14,51,21.10
2014,08,29,14,52,21.00
2014,08,29,14,53,20.90
2014,08,29,14,54,20.90
2014,08,29,14,55,20.90
2014,08,29,14,56,20.80
2014,08,29,14,57,20.70
2014,08,29,14,58,20.60
2014,08,29,14,59,20.50
2014,08,29,15,00,20.40
2014,08,29,15,01,20.40
2014,08,29,15,02,20.30
2014,08,29,15,03,20.30
2014,08,29,15,04,20.30
2014,08,29,15,05,20.20
2014,08,29,15,06,20.20
2014,08,29,15,07,20.20
2014,08,29,15,08,20.20
2014,08,29,15,09,20.20
2014,08,29,15,10,20.20
2014,08,29,15,11,20.20
2014,08,29,15,12,20.20
2014,08,29,15,13,20.10
2014,08,29,15,14,20.10
2014,08,29,15,15,20.20
2014,08,29,15,16,20.10
2014,08,29,15,17,20.10
2014,08,29,15,18,20.10
2014,08,29,15,19,20.10
2014,08,29,15,20,20.00
2014,08,29,15,21,20.00
2014,08,29,15,22,20.00
2014,08,29,15,23,20.00
2014,08,29,15,24,20.00
2014,08,29,15,25,20.00
2014,08,29,15,26,20.10
2014,08,29,15,27,20.10
2014,08,29,15,28,20.10
2014,08,29,15,29,20.10
2014,08,29,15,30,20.20
2014,08,29,15,31,20.20
2014,08,29,15,32,20.30
2014,08,29,15,33,20.30
2014,08,29,15,34,20.40
2014,08,29,15,35,20.30
2014,08,29,15,36,20.30
2014,08,29,15,37,20.30
2014,08,29,15,38,20.30
2014,08,29,15,39,20.30
2014,08,29,15,40,20.30
2014,08,29,15,41,20.30
2014,08,29,15,42,20.30
2014,08,29,15,43,20.30
2014,08,29,15,44,20.30
2014,08,29,15,45,20.30
2014,08,29,15,46,20.30
2014,08,29,15,47,20.30
2014,08,29,15,48,20.30
2014,08,29,15,49,20.30
2014,08,29,15,50,20.30
2014,08,29,15,51,20.40
2014,08,29,15,52,20.40
2014,08,29,15,53,20.40
2014,08,29,15,54,20.40
2014,08,29,15,55,20.40
2014,08,29,15,56,20.40
2014,08,29,15,57,20.40
2014,08,29,15,58,20.40
2014,08,29,15,59,20.40
2014,08,29,16,00,20.40
2014,08,29,16,01,20.40
2014,08,29,16,02,20.40
2014,08,29,16,03,20.40
2014,08,29,16,04,20.40
2014,08,29,16,05,20.30
2014,08,29,16,06,20.30
2014,08,29,16,07,20.20
2014,08,29,16,08,20.20
2014,08,29,16,09,20.20
2014,08,29,16,10,20.30
2014,08,29,16,11,20.30
2014,08,29,16,12,20.30
2014,08,29,16,13,20.40
2014,08,29,16,14,20.40
2014,08,29,16,15,20.40
2014,08,29,16,16,20.50
2014,08,29,16,17,20.50
2014,08,29,16,18,20.40
2014,08,29,16,19,20.30
2014,08,29,16,20,20.30
2014,08,29,16,21,20.10
2014,08,29,16,22,20.10
2014,08,29,16,23,20.10
2014,08,29,16,24,20.00
2014,08,29,16,25,20.00
2014,08,29,16,26,20.00
2014,08,29,16,27,20.00
2014,08,29,16,28,19.90
2014,08,29,16,29,19.90
2014,08,29,16,30,19.90
2014,08,29,16,31,19.90
2014,08,29,16,32,19.90
2014,08,29,16,33,20.00
2014,08,29,16,34,20.00
2014,08,29,16,35,20.00
2014,08,29,16,36,20.00
2014,08,29,16,37,20.00
2014,08,29,16,38,20.10
2014,08,29,16,39,20.10
2014,08,29,16,40,20.10
2014,08,29,16,41,20.20
2014,08,29,16,42,20.10
2014,08,29,16,43,20.10
2014,08,29,16,44,20.10
2014,08,29,16,45,20.10
2014,08,29,16,46,20.10
2014,08,29,16,47,20.10
2014,08,29,16,48,20.10
2014,08,29,16,49,20.10
2014,08,29,16,50,20.10
2014,08,29,16,51,20.10
2014,08,29,16,52,20.20
2014,08,29,16,53,20.30
2014,08,29,16,54,20.40
2014,08,29,16,55,20.50
2014,08,29,16,56,20.60
2014,08,29,16,57,20.60
2014,08,29,16,58,20.70
2014,08,29,16,59,20.80
2014,08,29,17,00,20.80
2014,08,29,17,01,20.80
2014,08,29,17,02,20.90
2014,08,29,17,03,21.00
2014,08,29,17,04,21.10
2014,08,29,17,05,21.20
2014,08,29,17,06,21.30
2014,08,29,17,07,21.40
2014,08,29,17,08,21.40
2014,08,29,17,09,21.50
2014,08,29,17,10,21.50
2014,08,29,17,11,21.50
2014,08,29,17,12,21.40
2014,08,29,17,13,21.40
2014,08,29,17,14,21.30
2014,08,29,17,15,21.30
2014,08,29,17,16,21.40
2014,08,29,17,17,21.40
2014,08,29,17,18,21.40
2014,08,29,17,19,21.40